Regional Weather Roundup
Issued by NWS

Home | Current Version | Previous Version | Text Only | Print | Product List | Glossary On
Versions: 1 2 3 4 5 6 7 8 9 10 11 12 13 14 15 16 17 18 19 20 21 22 23 24 25 26 27 28 29 30 31 32 33 34 35 36 37 38 39 40 41 42 43 44 45 46 47 48 49 50
000
ASCA42 TJSJ 231911
RWRPR
PUERTO RICO/U.S. VIRGIN ISLANDS HOURLY WEATHER ROUNDUP
NATIONAL WEATHER SERVICE SAN JUAN PR
300 PM AST SAT AUG 23 2014

PRZ001-004-232000-
PUERTO RICO

CITY           SKY/WX    TMP DP  RH WIND       PRES   REMARKS
SAN JUAN LMM   TSTM      77  77 100 E5        29.89S FOG
MAYAGUEZ       PTSUNNY   90  72  55 SE13      29.91F HX  96
AGUADILLA      PTSUNNY   88  73  62 S9        29.86F HX  96
CEIBA          PTSUNNY   84  75  74 S18G26    29.90S HX  92
$$

PRZ006-007-232000-
U.S. VIRGIN ISLANDS

CITY           SKY/WX    TMP DP  RH WIND       PRES   REMARKS
CHARLOTTE AMA  MOSUNNY   84  77  79 SE20      29.89S HX  94
CHRISTIANSTED  MOSUNNY   88  77  70 SE14      29.90F HX 100
$$

HOURLY WEATHER ROUNDUP FOR THE NEWS MEDIA

CITY           SKY/WX    TMP DP  RH WIND       PRES   REMARKS
MIAMI          PTSUNNY   89  73  59 NE10      29.93F HX  97
ORLANDO        MOSUNNY   95  73  48 NE7       29.92F HX 104
NEW YORK       CLOUDY    72  59  63 SE13      30.09S
NEWARK         PTSUNNY   72  62  71 VRB5      30.08S
CHICAGO        TSTM      73  67  81 NW21G36   30.07R
HARTFORD       PTSUNNY   73  56  54 NE12G20   30.08F
BOSTON         MOSUNNY   70  60  70 E15       30.12S
DALLAS         SUNNY     96  58  27 S14       29.97F HX  95
PHILADELPHIA   LGT RAIN  69  66  90 SE9       30.08S FOG


USA.gov is the U.S. government's official web portal to all federal, state and local government web resources and services.